COSMOS 1275 DEB

Satellite information

Favourite Embed

Satellite Type and Status

DEBRISIN ORBIT

Key statistics

Satellite COSMOS 1275 DEB at a glance.

Uptime

16215

Days in orbit

Revolutions

≈ 14.0

Per day

Orbit

LEO

Low Earth Orbit

Inclination

83.3

Latest

Satellite identification and parameters

Extended collection of information and parameters for COSMOS 1275 DEB.

Object identification

Identified? True

Debris? True

Object name: COSMOS 1275 DEB

International designator: 1981-053LS

Object number (NORAD): 18505

Object ID (CCSDS): 18505

Country: COMMONWEALTH OF INDEPENDENT STATES (CIS)

Current information (Y/N): Y

RCS size: SMALL

Orbital parameters

Period: 102.873 minutes

Inclination: 83.2862 deg

SMA: 7272.7 km

Apoapsis: 945.599 km

Periapsis: 843.532 km

RAAN: 252.3963 deg

Eccentricy: 0.00701716

Argument of periapsis: 290.974 deg

Mean anomaly: 68.3932 deg

Mean motion: 13.99778218 rev/day

Mean motion (dot): 0.00003303 rev/day2

B* drag term: 0.0021975506 1/REarth

Two-line elements (TLE)

Creation date: Oct. 26, 2025, 2:54 a.m.

Reference frame: TEME

Reference center: EARTH

Epoch: Oct. 25, 2025, 9:20 p.m. UTC

TLE line 0: 0 COSMOS 1275 DEB

TLE line 1: 1 18505U 81053LS 25298.88921645 .00003303 00000-0 21976-2 0 9991

TLE line 2: 2 18505 83.2862 252.3963 0070172 290.9740 68.3932 13.99778218 40514

Live tracking on map

Real-time ground track for satellite COSMOS 1275 DEB.

In-orbit conjunctions

A list of the most updated potential collisions computed for object COSMOS 1275 DEB.

Target Orbit TCA Probability of collision Miss distance Type
COSMOS 626 LEO 2024-08-13 10:06:27 0.0001344362 562.0 (m) PAYLOAD

Associated space launch

Navigation satellite providing location information for the Tsiklon-B navigation system

COSMOS 1275 DEB was lifted into orbit during the mission ‘Kosmos-3M | Parus 27’, on board a Kosmos-3M space rocket.

The launch took place on June 4, 1981, 3:41 p.m. from 132/2.

For more information about the launch, click the button.

Launch to space Kosmos-3M | Parus 27
Kosmos-3M | Parus 27

Agency: N/A

Status: Launch Successful

Launch date: June 4, 1981, 3:41 p.m. UTC

Rocket: Kosmos-3M

Launch pad: 132/2

Location: Plesetsk Cosmodrome, Russian Federation

...

Latest news about this satellite

There are no fresh news available about this satellite. Check back as we update our databases every day.


Newsletter sign-up

Weekly statistics, charts and insights to help you stay on top of the space industry.